| time (UTC) | temp C | wind direction | speed KPH | gust KPH | rain 1hr cm | rain 24hr cm | rain mn cm | humidity % | barometer mb |
| 20260903161615 | 19 | 259 | 16.1 | 29.0 | 0.00 | 0.08 | 0.08 | 62 | 1018.8 |
| 20260903160053 | 19 | 269 | 19.3 | 30.6 | 0.00 | 0.08 | 0.08 | 62 | 1018.7 |
| 20260903154550 | 19 | 263 | 17.7 | 30.6 | 0.00 | 0.08 | 0.08 | 61 | 1018.8 |
| 20260903153051 | 20 | 252 | 22.5 | 32.2 | 0.00 | 0.08 | 0.08 | 60 | 1018.5 |
| 20260903151550 | 20 | 245 | 20.9 | 30.6 | 0.00 | 0.08 | 0.08 | 59 | 1018.7 |
| 20260903144558 | 20 | 252 | 25.7 | 35.4 | 0.00 | 0.08 | 0.08 | 58 | 1019.1 |
| 20260903143054 | 20 | 246 | 22.5 | 37.0 | 0.00 | 0.08 | 0.08 | 58 | 1019.0 |
| 20260903141549 | 21 | 260 | 25.7 | 35.4 | 0.00 | 0.08 | 0.08 | 56 | 1018.9 |
| 20260903140054 | 21 | 243 | 25.7 | 40.2 | 0.00 | 0.08 | 0.08 | 56 | 1019.0 |
| 20260903134601 | 21 | 252 | 27.4 | 38.6 | 0.00 | 0.08 | 0.08 | 53 | 1018.9 |
| 20260903133100 | 21 | 236 | 22.5 | 32.2 | 0.00 | 0.08 | 0.08 | 54 | 1018.9 |
| 20260903131554 | 22 | 245 | 19.3 | 40.2 | 0.00 | 0.08 | 0.08 | 53 | 1019.1 |
| 20260903130052 | 21 | 85 | 4.8 | 14.5 | 0.00 | 0.08 | 0.08 | 53 | 1019.2 |
| 20260903124603 | 21 | 76 | 6.4 | 17.7 | 0.00 | 0.08 | 0.08 | 57 | 1019.3 |
| 20260903123053 | 21 | 27 | 1.6 | 16.1 | 0.00 | 0.08 | 0.08 | 57 | 1019.3 |
| 20260903121556 | 21 | 43 | 9.7 | 19.3 | 0.00 | 0.08 | 0.08 | 56 | 1019.3 |
| 20260903120049 | 22 | 50 | 12.9 | 20.9 | 0.00 | 0.08 | 0.08 | 54 | 1019.2 |
| 20260903114601 | 22 | 33 | 9.7 | 16.1 | 0.00 | 0.08 | 0.08 | 54 | 1019.3 |
| 20260903113053 | 22 | 250 | 8.0 | 22.5 | 0.00 | 0.08 | 0.08 | 51 | 1019.4 |
| 20260903111550 | 23 | 247 | 9.7 | 24.1 | 0.00 | 0.08 | 0.08 | 54 | 1019.7 |
| 20260903110059 | 22 | 225 | 11.3 | 19.3 | 0.00 | 0.08 | 0.08 | 54 | 1019.9 |
| 20260903104555 | 21 | 93 | 4.8 | 11.3 | 0.00 | 0.08 | 0.08 | 60 | 1020.1 |
| 20260903103052 | 21 | 56 | 1.6 | 9.7 | 0.00 | 0.08 | 0.08 | 59 | 1020.2 |
| 20260903101600 | 21 | 30 | 6.4 | 14.5 | 0.00 | 0.08 | 0.08 | 56 | 1020.2 |
| 20260903094610 | 21 | 38 | 8.0 | 16.1 | 0.00 | 0.08 | 0.08 | 55 | 1020.2 |
| 20260903093053 | 21 | 77 | 4.8 | 12.9 | 0.00 | 0.08 | 0.08 | 56 | 1020.4 |
| 20260903091607 | 21 | 89 | 4.8 | 12.9 | 0.00 | 0.08 | 0.08 | 56 | 1020.6 |
| 20260903090058 | 22 | 221 | 0.0 | 8.0 | 0.00 | 0.08 | 0.08 | 60 | 1020.6 |
| 20260903084554 | 20 | 304 | 1.6 | 9.7 | 0.00 | 0.08 | 0.08 | 67 | 1020.7 |
| 20260903083109 | 18 | 124 | 0.0 | 6.4 | 0.00 | 0.08 | 0.08 | 69 | 1020.8 |
| 20260903081601 | 18 | 113 | 0.0 | 3.2 | 0.00 | 0.08 | 0.08 | 72 | 1020.7 |
| 20260903080047 | 17 | 113 | 0.0 | 6.4 | 0.00 | 0.08 | 0.08 | 74 | 1020.8 |
| 20260903074553 | 17 | 133 | 1.6 | 6.4 | 0.00 | 0.08 | 0.08 | 73 | 1020.7 |
| 20260903073115 | 17 | 0 | 0.0 | 4.8 | 0.00 | 0.08 | 0.08 | 74 | 1020.6 |
| 20260903071553 | 16 | 134 | 3.2 | 6.4 | 0.00 | 0.08 | 0.08 | 76 | 1020.8 |
| 20260903070108 | 16 | 0 | 0.0 | 6.4 | 0.00 | 0.08 | 0.08 | 73 | 1020.8 |
| 20260903064556 | 17 | 231 | 4.8 | 8.0 | 0.00 | 0.08 | 0.08 | 73 | 1020.8 |
| 20260903063100 | 16 | 236 | 4.8 | 11.3 | 0.00 | 0.08 | 0.08 | 78 | 1020.9 |
| 20260903061603 | 15 | 266 | 0.0 | 12.9 | 0.00 | 0.08 | 0.08 | 80 | 1020.9 |
| 20260903060058 | 14 | 269 | 12.9 | 17.7 | 0.00 | 0.08 | 0.08 | 81 | 1020.7 |
| 20260903054555 | 14 | 197 | 4.8 | 11.3 | 0.00 | 0.08 | 0.08 | 83 | 1020.8 |
| 20260903053050 | 14 | 244 | 0.0 | 4.8 | 0.00 | 0.08 | 0.08 | 88 | 1020.8 |
| 20260903051601 | 12 | 244 | 0.0 | 3.2 | 0.00 | 0.08 | 0.08 | 89 | 1020.8 |
| 20260903050059 | 11 | 244 | 3.2 | 6.4 | 0.00 | 0.08 | 0.08 | 89 | 1020.7 |
| 20260903044551 | 10 | 0 | 3.2 | 9.7 | 0.00 | 0.08 | 0.08 | 89 | 1020.9 |
| 20260903043130 | 11 | 256 | 0.0 | 14.5 | 0.00 | 0.08 | 0.08 | 89 | 1021.0 |
| 20260903041556 | 10 | 261 | 17.7 | 22.5 | 0.00 | 0.08 | 0.08 | 89 | 1021.0 |
| 20260903040115 | 10 | 276 | 3.2 | 12.9 | 0.00 | 0.08 | 0.08 | 89 | 1020.9 |
| 20260903034548 | 10 | 230 | 3.2 | 6.4 | 0.08 | 0.08 | 0.08 | 89 | 1021.0 |
| 20260903033101 | 10 | 230 | 4.8 | 6.4 | 0.08 | 0.08 | 0.08 | 89 | 1021.0 |
| 20260903031554 | 10 | 261 | 0.0 | 12.9 | 0.08 | 0.08 | 0.08 | 89 | 1021.2 |
| 20260903030104 | 9 | 113 | 6.4 | 9.7 | 0.08 | 0.08 | 0.08 | 90 | 1020.9 |
| 20260903024601 | 7 | 286 | 6.4 | 11.3 | 0.00 | 0.00 | 0.00 | 89 | 1021.1 |
| 20260903023054 | 7 | 0 | 0.0 | 1.6 | 0.00 | 0.00 | 0.00 | 88 | 1020.7 |
| 20260903021552 | 7 | 0 | 1.6 | 6.4 | 0.00 | 0.00 | 0.00 | 88 | 1020.7 |
| 20260903020056 | 7 | 260 | 0.0 | 4.8 | 0.00 | 0.00 | 0.00 | 89 | 1020.8 |
| 20260903014557 | 6 | 0 | 0.0 | 4.8 | 0.00 | 0.00 | 0.00 | 88 | 1020.8 |
| 20260903013053 | 6 | 0 | 0.0 | 0.0 | 0.00 | 0.00 | 0.00 | 88 | 1020.9 |
| 20260903011557 | 6 | 259 | 3.2 | 4.8 | 0.00 | 0.00 | 0.00 | 87 | 1021.1 |
| 20260903010104 | 6 | 0 | 0.0 | 1.6 | 0.00 | 0.00 | 0.00 | 87 | 1021.3 |
| 20260903004619 | 6 | 0 | 0.0 | 4.8 | 0.00 | 0.00 | 0.00 | 87 | 1021.4 |
| 20260903003048 | 7 | 0 | 0.0 | 3.2 | 0.00 | 0.00 | 0.00 | 87 | 1021.5 |
| 20260903001555 | 7 | 259 | 3.2 | 4.8 | 0.00 | 0.00 | 0.00 | 87 | 1021.5 |
| 20260903000052 | 7 | 259 | 3.2 | 6.4 | 0.00 | 0.00 | 0.00 | 86 | 1021.4 |
| 20260902234549 | 8 | 0 | 0.0 | 4.8 | 0.00 | 0.00 | 0.00 | 86 | 1021.5 |
| 20260902233102 | 8 | 0 | 0.0 | 3.2 | 0.00 | 0.00 | 0.00 | 86 | 1021.5 |
| 20260902231552 | 8 | 0 | 0.0 | 3.2 | 0.00 | 0.00 | 0.00 | 86 | 1021.7 |
| 20260902230050 | 8 | 0 | 0.0 | 0.0 | 0.00 | 0.00 | 0.00 | 86 | 1021.7 |
| 20260902224554 | 8 | 0 | 0.0 | 1.6 | 0.00 | 0.00 | 0.00 | 86 | 1021.9 |
| 20260902223115 | 8 | 0 | 0.0 | 3.2 | 0.00 | 0.00 | 0.00 | 85 | 1021.8 |
| 20260902221554 | 8 | 0 | 0.0 | 3.2 | 0.00 | 0.00 | 0.00 | 85 | 1021.9 |
| 20260902220057 | 8 | 0 | 0.0 | 3.2 | 0.00 | 0.00 | 0.00 | 85 | 1022.0 |
| 20260902214604 | 8 | 0 | 0.0 | 3.2 | 0.00 | 0.00 | 0.00 | 84 | 1021.9 |
| 20260902213100 | 8 | 259 | 3.2 | 4.8 | 0.00 | 0.00 | 0.00 | 83 | 1021.9 |
| 20260902211556 | 10 | 0 | 0.0 | 0.0 | 0.00 | 0.00 | 0.00 | 83 | 1021.7 |
| 20260902210054 | 10 | 0 | 0.0 | 0.0 | 0.00 | 0.00 | 0.00 | 82 | 1021.8 |
| 20260902204637 | 10 | 0 | 0.0 | 0.0 | 0.00 | 0.00 | 0.00 | 82 | 1021.8 |
| 20260902203100 | 11 | 259 | 0.0 | 3.2 | 0.00 | 0.00 | 0.00 | 82 | 1021.6 |
| 20260902201554 | 11 | 0 | 0.0 | 3.2 | 0.00 | 0.00 | 0.00 | 82 | 1021.7 |
| 20260902200055 | 11 | 259 | 0.0 | 3.2 | 0.00 | 0.00 | 0.00 | 81 | 1021.7 |
| 20260902194549 | 12 | 259 | 1.6 | 4.8 | 0.00 | 0.00 | 0.00 | 82 | 1021.6 |
| 20260902193057 | 12 | 259 | 3.2 | 9.7 | 0.00 | 0.00 | 0.00 | 81 | 1021.8 |
| 20260902191553 | 12 | 254 | 1.6 | 6.4 | 0.00 | 0.00 | 0.00 | 79 | 1021.8 |
| 20260902190055 | 13 | 246 | 1.6 | 4.8 | 0.00 | 0.00 | 0.00 | 78 | 1021.8 |
| 20260902184548 | 13 | 246 | 0.0 | 4.8 | 0.00 | 0.00 | 0.00 | 78 | 1021.8 |
| 20260902183111 | 13 | 244 | 3.2 | 6.4 | 0.00 | 0.00 | 0.00 | 78 | 1021.7 |
| 20260902181602 | 14 | 244 | 1.6 | 6.4 | 0.00 | 0.00 | 0.00 | 75 | 1021.8 |
| 20260902180051 | 15 | 305 | 6.4 | 8.0 | 0.00 | 0.00 | 0.00 | 74 | 1021.6 |
| 20260902174551 | 15 | 303 | 4.8 | 8.0 | 0.00 | 0.00 | 0.00 | 71 | 1021.3 |
| 20260902173104 | 17 | 302 | 3.2 | 6.4 | 0.00 | 0.00 | 0.00 | 66 | 1021.3 |
| 20260902171606 | 18 | 57 | 6.4 | 9.7 | 0.00 | 0.00 | 0.00 | 63 | 1021.0 |
| 20260902170056 | 19 | 24 | 6.4 | 11.3 | 0.00 | 0.00 | 0.00 | 62 | 1021.1 |
| 20260902164602 | 20 | 50 | 6.4 | 14.5 | 0.00 | 0.00 | 0.00 | 56 | 1021.1 |
| 20260902163051 | 20 | 332 | 4.8 | 8.0 | 0.00 | 0.00 | 0.00 | 57 | 1021.1 |